Stations météo

réclame
Mon MeteoGroup
Greifswalder Oie, Allemagne (10097): Température de l'air & dewpoint: 20.04.2018 11:00:00 - 26.04.2018 11:00:00 (CEST)Greifswalder Oie, Allemagne (10097): Température de l'air 5cm & Température de l'air -5cm: 20.04.2018 11:00:00 - 26.04.2018 11:00:00 (CEST)Greifswalder Oie, Allemagne (10097): Température de l'air -20cm & Température de l'air -100cm: 20.04.2018 11:00:00 - 26.04.2018 11:00:00 (CEST)Greifswalder Oie, Allemagne (10097): water temperature: 20.04.2018 11:00:00 - 26.04.2018 11:00:00 (CEST)Greifswalder Oie, Allemagne (10097): Vitesse du vent & gusts: 20.04.2018 11:00:00 - 26.04.2018 11:00:00 (CEST)Greifswalder Oie, Allemagne (10097): Direction du vent: 20.04.2018 11:00:00 - 26.04.2018 11:00:00 (CEST)Greifswalder Oie, Allemagne (10097): reduced air pressure: 20.04.2018 11:00:00 - 26.04.2018 11:00:00 (CEST)Greifswalder Oie, Allemagne (10097): visibility: 20.04.2018 11:00:00 - 26.04.2018 11:00:00 (CEST)Greifswalder Oie, Allemagne (10097): Ensoleillement: 20.04.2018 11:00:00 - 26.04.2018 11:00:00 (CEST)Greifswalder Oie, Allemagne (10097): Quantités de précipitations: 20.04.2018 11:00:00 - 26.04.2018 11:00:00 (CEST)
Date & Time tt [°C] td [°C] tt 5cm [°C] tt -5cm [°C] tt -20cm [°C] tt -100cm [°C] tw [°C] ff [km/h] ff [knt] fx [km/h] fx [knt] dd ppp [hPa] vv [km] sd [min] rr [mm]
26.04.2018 11:00:00 10,1 6,1 13,5 12,2 9,9 9,5 9,4 28 15 35 19 WSW 1009,1 18 29 0,0
26.04.2018 10:00:00 9,5 6,1 12,0 11,3 9,5 9,5 9,0 29 16 36 20 WSW 1009,0 13 60 0,0
26.04.2018 09:00:00 8,4 6,2 10,0 8,9 9,4 9,5 8,7 31 17 43 23 WSW 1009,0 11 43 0,0
26.04.2018 08:00:00 7,8 5,7 8,8 7,9 9,5 9,5 8,7 36 20 48 26 WSW 1008,7 9 37 0,0
26.04.2018 07:00:00 7,9 5,8 8,2 7,7 9,6 9,5 8,8 34 19 47 26 WSW 1008,2 16 4 0,0
26.04.2018 06:00:00 8,2 5,8 8,0 7,8 9,7 9,5 9,0 37 20 49 27 WSW 1007,7 24 0 0,0
26.04.2018 05:00:00 8,3 6,1 7,7 7,8 9,8 9,5 9,4 39 21 51 28 WSW 1007,4 21 0 0,0
26.04.2018 04:00:00 8,5 6,4 8,2 7,9 9,9 9,5 9,5 34 18 42 23 WSW 1007,7 20 0 0,0
26.04.2018 03:00:00 8,4 6,4 7,9 7,9 10,1 9,5 9,7 28 15 32 17 SW 1007,9 28 0 0,0
26.04.2018 02:00:00 8,0 6,4 7,4 7,8 10,3 9,5 9,9 24 13 31 17 SW 1008,3 29 0 0,0
26.04.2018 01:00:00 8,4 6,5 7,8 7,9 10,5 9,5 9,9 25 13 40 21 SW 1008,4 38 0 0,0
26.04.2018 00:00:00 8,6 6,2 7,5 8,0 10,8 9,5 10,1 29 16 40 21 W 1008,3 40 0 0,0
25.04.2018 23:00:00 8,8 6,1 7,9 8,4 11,1 9,5 10,5 34 18 48 26 W 1008,4 43 0 0,0
25.04.2018 22:00:00 9,3 6,2 8,7 8,8 11,4 9,5 10,6 37 20 45 25 W 1008,1 39 0 0,0
25.04.2018 21:00:00 9,3 6,1 8,8 9,2 11,7 9,5 10,8 42 23 54 29 W 1007,3 43 0 0,0
25.04.2018 20:00:00 9,3 6,4 8,7 9,7 12,0 9,5 10,6 40 22 51 28 W 1006,9 44 20 0,1
25.04.2018 19:00:00 9,4 7,0 9,6 11,1 12,2 9,5 10,6 29 16 40 21 W 1006,6 14 56 0,0
25.04.2018 18:00:00 9,4 5,8 10,1 12,9 12,1 9,5 10,6 28 15 39 21 WNW 1006,0 44 57 0,0
25.04.2018 17:00:00 8,6 7,6 10,6 12,2 12,2 9,5 10,4 37 20 64 34 NNW 1004,7 25 3 0,0
25.04.2018 16:00:00 8,5 7,1 8,3 11,9 12,3 9,5 10,7 49 27 65 35 NW 1002,9 11 3 0,5
25.04.2018 15:00:00 10,3 9,8 10,1 12,3 12,3 9,5 10,9 41 22 56 30 W 1001,1 5 6 1,3
25.04.2018 14:00:00 12,3 9,2 14,1 14,1 12,2 9,5 11,0 41 22 66 36 WNW 1000,0 13 13 0,0
25.04.2018 13:00:00 12,0 9,0 12,9 15,0 11,8 9,5 11,3 36 20 64 35 WNW 999,5 19 30 0,0
25.04.2018 12:00:00 13,7 10,8 16,0 14,6 11,3 9,5 10,9 36 19 54 29 WSW 999,6 7 22 0,0
25.04.2018 11:00:00 13,3 10,9 14,2 13,4 11,0 9,5 10,4 39 21 48 26 SW 1000,0 6 16 0,0
25.04.2018 10:00:00 11,6 10,6 12,0 11,6 10,8 9,5 10,0 32 17 40 22 SSW 1000,6 3,7 2 0,1
25.04.2018 09:00:00 10,3 9,9 10,3 10,3 10,8 9,5 10,0 32 17 40 22 SSW 1001,6 2,0 0 0,6
25.04.2018 08:00:00 9,1 8,7 9,0 9,4 10,9 9,5 10,1 17 9 29 16 S 1002,8 5 0 0,8
25.04.2018 07:00:00 7,8 7,2 7,6 9,1 11,0 9,5 10,3 17 9 23 13 SE 1003,9 7 0 1,0
25.04.2018 06:00:00 7,8 6,2 7,2 9,2 11,2 9,5 10,4 11 6 18 10 SSE 1004,9 7 0 0,9
25.04.2018 05:00:00 8,4 7,0 7,7 9,4 11,4 9,5 10,4 15 8 21 11 WSW 1006,4 6 0 1,0
25.04.2018 04:00:00 8,9 7,5 8,2 9,6 11,6 9,5 9,9 17 9 26 14 W 1007,3 7 0 0,5
25.04.2018 03:00:00 9,4 7,2 8,4 9,9 11,8 9,5 9,9 22 12 33 18 W 1008,0 10 0 0,3
25.04.2018 02:00:00 10,1 7,8 9,3 10,4 12,0 9,5 9,8 29 16 42 23 W 1008,7 8 0 0,0
25.04.2018 01:00:00 10,6 8,1 10,3 10,7 12,1 9,5 9,7 34 18 43 23 WSW 1009,2 13 0 0,0
25.04.2018 00:00:00 10,8 7,9 10,4 10,8 12,4 9,5 9,4 36 19 45 24 WSW 1009,6 18 0 0,0
24.04.2018 23:00:00 10,9 7,6 10,2 11,2 12,6 9,5 9,5 39 21 46 25 WSW 1009,7 24 0 0,0
24.04.2018 22:00:00 10,9 8,4 10,4 11,6 12,8 9,5 9,6 29 16 40 22 SW 1010,2 16 0 0,0
24.04.2018 21:00:00 11,2 8,5 10,5 12,1 13,1 9,5 9,8 26 14 33 18 WSW 1010,3 17 0 0,0
24.04.2018 20:00:00 10,8 7,4 10,4 12,9 13,3 9,5 9,7 18 10 32 17 W 1010,3 36 0 0,0
24.04.2018 19:00:00 11,2 7,3 11,2 14,1 13,3 9,5 9,6 22 12 41 22 W 1010,4 24 34 0,0
24.04.2018 18:00:00 11,9 8,7 12,4 14,8 13,2 9,5 10,1 36 19 54 29 WSW 1010,2 13 21 0,0
24.04.2018 17:00:00 12,8 8,5 14,9 15,5 13,0 9,5 10,2 42 23 58 31 WSW 1009,9 11 25 0,0
24.04.2018 16:00:00 12,1 8,7 12,8 15,7 12,8 9,5 10,3 42 23 55 30 WSW 1010,0 12 13 0,0
24.04.2018 15:00:00 12,5 8,8 14,3 15,2 12,6 9,5 10,1 37 20 53 29 WSW 1010,2 15 4 0,0
24.04.2018 14:00:00 12,3 8,0 13,0 15,2 12,3 9,5 10,1 41 22 50 27 WSW 1010,0 14 5 0,0
24.04.2018 13:00:00 12,1 8,3 13,7 14,0 12,1 9,5 9,9 32 17 51 28 WSW 1010,2 12 0 0,0
24.04.2018 12:00:00 11,8 7,8 13,0 13,7 11,8 9,5 10,0 37 20 49 26 WSW 1009,8 12 0 0,0
24.04.2018 11:00:00 11,8 7,2 12,8 14,1 11,5 9,4 9,9 38 20 46 25 SW 1010,1 17 23 0,0
24.04.2018 10:00:00 11,2 6,9 12,5 12,0 11,3 9,4 9,4 32 17 40 21 SW 1010,5 19 5 0,0
24.04.2018 09:00:00 9,9 6,2 10,3 10,6 11,3 9,4 9,4 29 15 39 21 SSW 1011,3 18 0 0,0
24.04.2018 08:00:00 9,0 5,3 9,2 9,8 11,4 9,4 9,3 29 16 40 22 SW 1011,6 43 0 0,0
24.04.2018 07:00:00 9,3 5,3 9,0 9,4 11,5 9,4 9,3 29 16 39 21 SW 1011,6 34 0 0,0
24.04.2018 06:00:00 9,0 5,4 8,4 9,2 11,8 9,4 9,3 31 17 40 22 WSW 1011,9 41 0 0,0
24.04.2018 05:00:00 9,0 5,5 8,4 9,3 12,0 9,4 9,7 35 19 44 24 WSW 1012,1 53 0 0,0
24.04.2018 04:00:00 9,4 5,7 8,7 9,5 12,3 9,4 9,9 33 18 46 25 WSW 1012,2 55 0 0,0
24.04.2018 03:00:00 9,6 5,9 8,7 9,7 12,6 9,4 10,0 35 19 43 23 W 1012,5 54 0 0,0
24.04.2018 02:00:00 9,8 6,2 8,7 10,0 12,9 9,4 10,0 31 17 41 22 W 1012,5 57 0 0,0
24.04.2018 01:00:00 10,0 6,0 9,1 10,3 13,3 9,3 10,1 32 18 41 22 W 1012,6 58 0 0,0
24.04.2018 00:00:00 10,3 6,5 9,4 10,8 13,7 9,3 10,1 31 17 37 20 W 1012,5 46 0 0,0
23.04.2018 23:00:00 10,6 6,6 9,6 11,3 14,1 9,3 10,2 29 16 42 23 W 1012,5 55 0 0,0
23.04.2018 22:00:00 11,1 6,3 10,2 12,0 14,5 9,3 10,3 29 16 46 25 W 1012,3 48 0 0,0
23.04.2018 21:00:00 11,3 6,6 10,6 12,9 15,0 9,3 10,3 35 19 40 22 WNW 1012,0 39 0 0,0
23.04.2018 20:00:00 11,7 7,3 11,0 14,4 15,4 9,3 10,3 25 13 36 19 WNW 1011,2 33 60 0,0
23.04.2018 19:00:00 12,5 7,3 12,7 16,1 15,6 9,3 10,3 25 14 40 21 WNW 1011,0 29 60 0,0
23.04.2018 18:00:00 12,4 7,4 13,1 17,3 15,6 9,3 10,4 37 20 54 29 WNW 1010,7 21 58 0,0
23.04.2018 17:00:00 13,7 8,4 15,1 19,5 15,4 9,3 10,4 27 15 45 24 WNW 1010,4 18 60 0,0
23.04.2018 16:00:00 13,9 8,5 15,7 19,8 15,1 9,3 10,2 34 18 49 26 WNW 1010,3 13 60 0,0
23.04.2018 15:00:00 13,6 9,9 15,8 19,7 14,7 9,3 10,1 42 23 55 30 WNW 1009,8 7 60 0,0
23.04.2018 14:00:00 14,0 10,4 16,1 19,0 14,3 9,2 9,8 36 19 47 26 WNW 1009,7 7 47 0,0
23.04.2018 13:00:00 14,3 10,5 16,5 19,1 13,7 9,2 9,7 40 21 47 25 WNW 1008,7 6 60 0,0
23.04.2018 12:00:00 13,5 10,7 17,8 18,7 13,2 9,2 9,2 28 15 32 17 W 1008,2 8 60 0,0
23.04.2018 11:00:00 14,8 11,4 18,3 15,9 12,8 9,2 9,0 26 14 29 16 WSW 1007,7 15 21 0,0
23.04.2018 10:00:00 14,9 11,5 17,4 15,4 12,5 9,2 8,9 23 12 29 16 SW 1007,5 13 44 0,0
23.04.2018 09:00:00 13,6 10,7 14,9 13,1 12,3 9,2 8,7 23 12 32 17 SSW 1007,8 28 8 0,0
23.04.2018 08:00:00 12,9 9,8 14,2 11,8 12,4 9,1 8,1 23 13 29 15 SSW 1007,9 17 31 0,0
23.04.2018 07:00:00 12,0 9,6 11,6 11,1 12,5 9,1 8,2 19 11 27 15 S 1008,0 27 0 0,0
23.04.2018 06:00:00 11,9 9,3 11,2 11,0 12,7 9,1 8,4 17 9 27 14 S 1007,8 26 0 0,0
23.04.2018 05:00:00 11,0 9,1 10,1 11,0 12,8 9,1 8,2 18 10 24 13 SE 1007,9 18 0 0,0
23.04.2018 04:00:00 11,5 9,5 10,4 11,4 13,0 9,1 7,9 15 8 29 15 SSE 1008,5 16 0 0,7
23.04.2018 03:00:00 10,4 8,1 10,2 11,2 13,3 9,1 8,0 19 10 29 16 ESE 1009,3 25 0 0,0
23.04.2018 02:00:00 9,7 7,7 9,4 11,5 13,6 9,1 8,1 21 11 29 15 ESE 1010,2 24 0 0,0
23.04.2018 01:00:00 9,8 7,4 9,3 11,3 14,0 9,0 8,1 22 12 35 19 ESE 1011,3 28 0 0,0
23.04.2018 00:00:00 10,0 6,9 9,7 11,6 14,4 9,0 8,2 24 13 37 20 E 1011,8 36 0 0,0
22.04.2018 23:00:00 9,6 6,4 8,9 11,9 15,0 9,0 8,9 29 15 38 21 E 1012,4 41 0 0,0
22.04.2018 22:00:00 9,7 6,7 9,0 12,7 15,6 9,0 9,2 26 14 32 18 E 1012,7 39 0 0,0
22.04.2018 21:00:00 10,0 6,8 9,1 13,9 16,2 9,0 9,4 22 12 28 15 E 1012,8 23 0 0,0
22.04.2018 20:00:00 10,3 7,0 9,7 15,7 16,7 9,0 9,6 20 11 29 15 E 1013,0 17 57 0,0
22.04.2018 19:00:00 10,3 7,5 10,9 18,3 17,0 9,0 9,8 21 11 27 15 E 1013,4 10 60 0,0
22.04.2018 18:00:00 11,2 8,0 12,8 20,8 17,0 9,0 10,9 16 9 22 12 E 1014,3 10 60 0,0
22.04.2018 17:00:00 11,2 8,2 14,5 23,1 16,7 8,9 10,9 15 8 20 11 E 1015,0 12 59 0,0
22.04.2018 16:00:00 11,5 8,6 16,2 24,1 16,2 8,9 11,5 12 7 21 11 E 1015,7 9 60 0,0
22.04.2018 15:00:00 11,4 8,6 15,7 24,2 15,5 8,9 11,8 16 9 20 11 E 1016,3 8 60 0,0
22.04.2018 14:00:00 12,3 9,7 16,7 23,4 14,7 8,9 12,7 14 8 19 11 E 1016,7 10 60 0,0
22.04.2018 13:00:00 12,4 7,9 17,5 22,7 13,8 8,9 14,1 8 4 11 6 E 1017,0 12 60 0,0
22.04.2018 12:00:00 12,7 7,7 17,8 20,9 13,0 8,8 13,7 6 3 10 5 E 1017,3 11 60 0,0
22.04.2018 11:00:00 12,0 7,4 17,1 17,7 12,3 8,8 12,4 3 2 9 5 SSW 1017,6 13 60 0,0
22.04.2018 10:00:00 10,4 7,4 16,9 14,4 11,9 8,8 11,8 7 4 10 5 W 1017,7 14 60 0,0
22.04.2018 09:00:00 9,6 6,9 14,8 11,5 11,8 8,8 11,7 6 3 15 8 W 1017,7 15 60 0,0
22.04.2018 08:00:00 9,6 7,2 12,5 10,1 12,0 8,8 11,6 11 6 16 9 W 1017,9 18 60 0,0
22.04.2018 07:00:00 9,7 7,0 9,7 9,5 12,2 8,7 11,9 13 7 17 9 W 1017,9 25 37 0,0
22.04.2018 06:00:00 9,8 7,2 8,3 9,6 12,5 8,7 12,1 16 9 19 10 W 1017,9 26 0 0,0
22.04.2018 05:00:00 10,1 7,5 8,5 9,9 12,8 8,7 12,2 16 9 21 11 W 1018,0 31 0 0,0
22.04.2018 04:00:00 10,1 8,2 8,8 10,2 13,2 8,7 12,2 15 8 19 10 WSW 1018,4 31 0 0,0
22.04.2018 03:00:00 10,3 7,7 8,7 10,6 13,6 8,7 12,3 14 8 17 9 W 1018,6 33 0 0,0
22.04.2018 02:00:00 9,7 8,2 8,2 11,0 14,0 8,6 12,6 9 5 15 8 WNW 1019,0 37 0 0,0
22.04.2018 01:00:00 10,9 8,3 9,1 11,5 14,4 8,6 12,8 12 7 16 9 W 1018,8 43 0 0,0
22.04.2018 00:00:00 10,9 8,2 9,0 12,1 15,0 8,6 12,5 10 5 17 9 W 1018,9 43 0 0,0
21.04.2018 23:00:00 11,1 8,1 9,6 12,8 15,5 8,6 12,7 13 7 14 8 WSW 1019,0 43 0 0,0
21.04.2018 22:00:00 11,6 8,2 10,0 13,6 16,1 8,6 12,5 13 7 17 9 W 1019,3 30 0 0,0
21.04.2018 21:00:00 11,2 7,5 9,0 14,9 16,7 8,5 12,6 9 5 13 7 W 1019,5 31 11 0,0
21.04.2018 20:00:00 12,0 7,2 10,8 17,0 17,2 8,5 12,9 14 8 22 12 NW 1019,3 25 60 0,0
21.04.2018 19:00:00 13,5 7,1 14,1 19,6 17,4 8,5 13,2 16 9 21 12 NW 1019,6 43 60 0,0
21.04.2018 18:00:00 12,4 6,8 14,4 21,6 17,4 8,5 13,3 12 7 19 11 NW 1019,9 25 60 0,0
21.04.2018 17:00:00 14,3 7,1 16,6 24,4 16,9 8,5 13,5 11 6 17 9 NW 1020,0 22 60 0,0
21.04.2018 16:00:00 14,8 6,9 18,9 25,0 16,3 8,4 13,2 7 4 22 12 WNW 1020,2 27 60 0,0
21.04.2018 15:00:00 15,4 8,2 18,7 25,1 15,5 8,4 13,0 17 9 26 14 NW 1020,4 26 60 0,0
21.04.2018 14:00:00 14,9 8,2 19,5 23,9 14,7 8,4 12,7 26 14 37 20 NNW 1020,4 17 60 0,0
21.04.2018 13:00:00 14,2 7,2 19,3 22,4 13,8 8,4 12,6 24 13 36 19 NNW 1020,5 23 60 0,0
21.04.2018 12:00:00 14,6 8,5 18,2 19,8 13,1 8,4 12,7 22 12 37 20 NW 1020,4 14 60 0,0
21.04.2018 11:00:00 11,7 8,8 15,0 16,2 12,6 8,3 12,5 19 10 29 16 W 1020,2 5 60 0,0
21.04.2018 10:00:00 11,1 8,8 14,8 13,8 12,3 8,3 12,3 21 11 24 13 W 1019,5 2,9 60 0,0
21.04.2018 09:00:00 11,0 8,4 12,6 11,9 12,3 8,3 12,1 23 12 26 14 WNW 1018,9 3,3 60 0,0
21.04.2018 08:00:00 10,6 8,4 11,4 11,0 12,5 8,3 11,9 22 12 27 15 WNW 1018,4 2,7 60 0,0
21.04.2018 07:00:00 10,2 8,4 10,0 10,5 12,8 8,2 11,9 17 9 24 13 WNW 1017,9 2,3 23 0,0
21.04.2018 06:00:00 10,5 8,5 9,8 10,7 13,1 8,2 12,0 21 12 29 15 WNW 1017,2 2,3 0 0,0
21.04.2018 05:00:00 10,9 8,7 10,1 11,2 13,5 8,2 12,2 23 12 29 15 WNW 1017,0 2,6 0 0,0
21.04.2018 04:00:00 11,1 9,3 10,3 11,6 13,8 8,2 12,2 21 11 24 13 W 1017,0 2,2 0 0,0
21.04.2018 03:00:00 11,6 9,3 10,8 12,0 14,2 8,1 12,2 22 12 30 16 W 1017,0 3,0 0 0,0
21.04.2018 02:00:00 11,9 9,8 11,1 12,5 14,7 8,1 12,4 24 13 31 17 W 1016,9 3,5 0 0,0
21.04.2018 01:00:00 12,7 9,3 11,9 13,2 15,1 8,1 12,6 27 14 34 19 W 1017,0 6 0 0,0
21.04.2018 00:00:00 14,4 9,2 13,5 13,9 15,6 8,1 12,6 30 16 34 18 W 1016,9 9 0 0,0
20.04.2018 23:00:00 14,5 9,8 13,3 14,9 16,1 8,1 12,7 24 13 33 18 W 1017,0 9 0 0,0
20.04.2018 22:00:00 15,6 10,4 14,6 16,0 16,5 8,0 12,8 27 14 32 17 W 1017,5 9 0 0,0
20.04.2018 21:00:00 16,6 10,3 15,8 17,3 17,0 8,0 12,8 31 17 41 22 WNW 1017,6 10 0 0,0
20.04.2018 20:00:00 19,4 10,5 18,2 19,2 17,3 8,0 12,8 29 16 32 18 SSW 1016,9 29 46 0,0
20.04.2018 19:00:00 20,0 10,4 19,9 21,3 17,4 8,0 13,0 28 15 35 19 SW 1017,3 21 60 0,0
20.04.2018 18:00:00 19,6 11,0 20,7 23,1 17,2 8,0 13,8 26 14 32 17 SW 1018,0 22 60 0,0
20.04.2018 17:00:00 20,1 11,2 22,8 25,2 16,8 8,0 13,3 26 14 36 19 SW 1018,8 16 60 0,0
20.04.2018 16:00:00 20,5 11,3 23,4 26,2 16,1 7,9 12,0 25 14 32 17 SSW 1019,7 12 60 0,0
20.04.2018 15:00:00 19,5 12,5 23,4 26,4 15,1 7,9 11,7 15 8 24 13 S 1020,9 17 60 0,0
20.04.2018 14:00:00 17,5 11,8 22,5 25,3 14,1 7,9 12,8 15 8 26 14 SSE 1021,8 13 60 0,0
20.04.2018 13:00:00 16,7 11,9 21,7 23,3 13,1 7,9 12,0 16 9 26 14 SSE 1022,9 13 60 0,0
20.04.2018 12:00:00 15,6 11,7 19,9 20,7 12,2 7,9 11,2 18 10 26 14 SSE 1023,8 10 60 0,0
20.04.2018 11:00:00 14,1 10,9 18,9 17,5 11,5 7,8 10,5 14 8 26 14 SSE 1024,6 12 60 0,0

tt = Température de l'air
td = dewpoint
tt 5cm = Température de l'air 5cm
tt -5cm = Température de l'air -5cm
tt -20cm = Température de l'air -20cm
tt -100cm = Température de l'air -100cm
tw = water temperature
ff = Vitesse du vent
fx = gusts
dd = Direction du vent
ppp = reduced air pressure
vv = visibility
sd = Ensoleillement
rr = Quantités de précipitations

stations d'obs. à proximité